Theta_e
316 321 323 323 327 325 327 326 329 330 331 334 336 336 338 340 341 344 340 335 337 340 349 323 318 318 317 316 317 321 329 336 338 339 340 341 341 338 335 327 321 320 321 320 316 313 313 316 317
324 327 319 326 326 327 326 327 328 334 335 337 338 338 340 340 340 341 340 338 338 343 347 337 318 318 318 316 315 316 324 330 336 335 334 335 334 329 323 318 317 318 316 322 322 322 324 326 325
332 322 322 323 327 326 327 328 332 335 338 336 338 338 339 340 340 340 340 339 339 345 347 341 318 318 318 316 315 314 318 321 327 327 327 326 324 320 317 316 315 313 324 328 329 331 328 323 324
325 322 322 325 324 326 326 331 333 336 336 336 336 337 338 339 340 340 339 339 342 345 346 342 325 318 318 317 315 314 315 315 317 318 318 317 317 316 315 313 312 315 329 332 333 330 323 327 331
325 324 323 323 324 326 327 328 332 336 336 336 336 338 337 338 339 341 338 339 342 344 345 344 337 319 318 318 316 314 314 314 314 314 315 315 314 313 312 312 312 317 331 333 333 331 328 331 331
327 322 322 324 325 326 326 327 328 332 334 333 336 337 338 338 340 339 336 337 339 342 344 348 342 323 319 319 316 314 313 314 314 313 314 313 312 312 313 313 314 319 329 333 334 332 330 330 332
330 328 325 324 324 325 325 326 327 329 332 334 335 337 338 341 340 337 335 335 337 339 342 346 351 335 321 320 317 315 313 314 314 313 313 312 312 313 314 314 316 320 327 331 333 334 333 333 333
328 329 329 327 325 324 325 325 326 326 329 333 336 338 339 339 337 335 335 336 337 338 340 341 351 344 340 339 321 317 315 313 314 314 313 313 313 314 315 315 317 320 326 330 333 335 335 334 335
328 330 330 329 327 325 325 325 325 328 328 332 335 337 338 339 339 336 336 336 337 338 341 342 345 347 342 338 340 324 319 315 314 315 315 315 329 330 329 326 327 320 324 330 333 333 333 332 332
330 332 331 329 328 326 325 324 325 325 328 333 335 335 337 341 339 338 338 338 338 339 341 343 345 346 346 340 339 343 340 337 335 332 333 332 329 329 330 329 326 329 323 328 331 330 330 332 336
328 332 330 330 329 328 327 324 325 325 328 332 335 335 336 341 339 339 338 338 337 338 338 340 348 347 346 344 339 344 344 341 339 336 334 335 330 331 332 331 331 333 329 334 334 336 337 337 337
326 327 329 330 329 329 327 325 325 326 326 327 334 335 334 335 337 337 335 334 334 334 334 335 344 352 350 345 344 341 343 345 342 341 338 335 335 333 333 332 333 333 333 333 336 337 338 339 339
324 325 326 327 328 329 329 327 326 326 326 327 330 333 333 332 334 333 333 334 334 334 334 336 341 348 351 351 345 345 343 343 344 343 341 339 338 336 334 334 333 335 333 334 335 337 339 340 340
319 322 323 324 325 327 329 330 329 328 326 327 326 327 330 331 331 333 332 332 332 333 333 333 335 340 351 349 346 347 347 345 345 345 344 342 339 339 337 336 335 334 334 333 335 336 337 339 338
318 319 319 321 323 325 326 328 328 329 329 329 328 328 328 330 332 333 331 332 332 332 333 333 334 338 341 346 349 348 345 348 345 345 344 345 343 340 340 338 337 334 333 334 334 335 336 338 337
316 318 319 320 321 322 323 327 327 327 329 330 330 331 331 332 333 331 330 331 331 332 333 334 333 334 338 345 346 345 343 343 344 344 344 345 345 343 342 339 338 336 334 334 334 334 336 337 335
313 317 319 318 319 320 322 325 325 326 327 330 331 330 331 332 333 332 330 330 331 332 334 335 335 335 337 338 340 341 342 343 341 342 343 345 345 345 343 341 338 337 335 334 334 333 336 336 334
312 313 316 317 318 319 320 322 323 324 326 327 329 330 331 331 332 332 331 331 331 332 334 334 336 336 336 335 339 339 338 340 342 342 343 344 346 345 345 342 341 338 336 334 333 334 335 332 335
313 312 313 316 318 319 319 321 322 323 324 325 328 329 331 331 331 330 330 331 330 330 331 334 335 336 335 335 337 335 338 340 344 344 344 344 346 345 343 343 342 340 336 336 335 334 334 336 337
311 313 314 314 315 319 320 321 321 323 323 324 325 327 329 329 330 331 330 329 330 331 332 332 335 337 339 336 337 336 339 341 344 344 344 346 346 346 344 344 343 340 338 338 335 334 334 337 340
311 312 312 313 315 317 320 321 322 322 322 323 323 324 326 327 329 330 330 331 330 331 332 332 335 337 340 338 336 341 344 346 345 346 346 346 346 344 344 342 344 342 340 336 336 336 338 340 338
312 312 311 312 313 315 318 323 322 322 323 323 324 324 325 326 326 327 328 332 330 330 329 330 333 337 340 342 337 342 345 345 346 347 347 344 344 344 343 342 343 341 339 336 336 338 340 339 337
311 311 311 311 312 314 314 318 319 321 323 323 324 324 325 325 327 327 327 327 326 327 329 330 333 338 339 340 340 342 346 344 345 346 348 344 344 343 342 341 342 341 338 340 340 340 340 339 336
313 311 311 312 312 314 314 317 318 320 321 322 323 324 324 324 325 325 325 326 325 324 325 329 334 337 339 338 344 347 347 347 347 347 344 343 342 341 343 342 342 341 340 342 340 339 339 338 335
312 311 311 311 312 313 314 318 318 319 320 321 322 323 324 324 324 324 324 325 325 325 324 326 329 334 337 340 344 346 349 351 351 346 343 344 343 344 343 343 343 343 343 341 339 339 338 336 334
314 311 311 311 311 311 313 315 317 319 321 321 321 321 321 324 324 324 326 326 327 326 326 327 331 340 343 345 347 348 349 349 350 346 347 346 345 345 344 343 343 341 340 337 339 337 335 333 333
314 313 313 315 314 315 313 314 317 317 319 320 321 322 323 325 327 329 330 332 332 326 327 336 340 342 345 346 347 349 349 349 348 350 348 346 345 345 344 343 341 338 337 338 337 335 334 333 332
313 315 318 316 314 313 313 315 317 316 318 320 321 324 325 325 333 336 335 334 331 335 343 344 344 346 347 348 349 349 351 350 350 347 346 344 343 341 341 339 338 338 337 336 335 333 333 333 333
314 315 315 318 316 315 313 317 317 319 318 320 321 323 324 330 340 340 341 341 344 344 347 348 347 347 347 348 350 349 349 348 346 344 342 342 340 339 338 338 337 336 334 334 334 335 335 334 334
311 311 314 317 315 318 317 316 317 321 323 321 322 322 323 334 341 340 342 344 346 346 347 348 347 348 348 347 347 347 346 344 342 341 340 339 338 337 335 335 333 332 332 335 335 334 333 333 333
Wind_Speed
13 9 9 9 7 8 17 19 12 12 13 5 3 7 8 15 9 2 16 18 22 25 24 30 29 28 25 24 23 23 23 22 21 20 19 18 17 16 14 13 11 11 9 8 7 6 5 4 3
10 10 10 8 9 14 14 19 13 11 12 9 10 10 8 16 12 12 17 14 23 24 23 28 31 30 27 25 25 24 24 23 23 22 20 19 18 17 15 13 12 11 10 10 9 8 7 5 4
7 11 9 9 15 16 15 20 11 15 8 9 7 10 7 8 3 7 22 20 23 22 23 27 32 31 30 28 27 26 26 24 24 23 21 20 19 17 15 14 13 12 11 11 10 9 7 6 4
9 9 7 12 19 21 25 4 5 8 8 9 10 9 5 4 2 11 24 22 22 21 21 24 32 32 30 28 27 27 26 25 25 24 22 21 20 18 16 15 14 12 12 11 10 9 8 7 5
13 9 13 16 21 24 17 6 3 10 8 8 13 13 13 10 3 23 26 23 21 20 19 22 28 33 31 29 28 28 27 26 25 24 23 22 20 19 18 16 15 14 12 11 11 10 8 7 5
9 7 14 17 23 20 20 12 11 17 16 13 11 16 12 16 13 20 25 23 21 21 20 19 25 33 32 31 29 29 28 27 26 25 24 23 22 20 19 17 16 15 14 14 13 11 9 7 7
17 14 19 22 20 18 16 17 17 17 18 17 16 15 9 13 18 25 25 23 21 20 19 18 19 31 34 31 30 30 29 28 27 26 25 24 23 21 20 19 17 17 16 15 14 12 10 9 9
14 15 25 22 19 23 16 14 15 18 19 15 9 18 20 17 25 27 24 22 18 18 18 19 17 23 26 25 31 30 29 28 28 27 26 25 24 23 22 21 19 18 17 17 15 13 12 11 10
19 17 19 25 23 20 12 13 18 16 17 15 11 13 13 25 21 24 23 21 17 17 15 15 17 19 22 23 22 30 30 29 29 29 29 28 22 21 21 22 21 21 19 18 17 15 15 14 12
21 18 29 24 21 16 16 15 19 20 13 19 12 3 6 15 21 20 18 16 18 17 16 15 15 18 19 20 21 22 23 24 26 26 25 27 25 24 23 23 24 22 21 20 19 19 18 17 14
26 28 26 25 24 19 15 19 19 22 16 20 15 12 9 17 19 18 20 21 23 22 20 20 18 18 19 19 20 19 20 24 27 28 28 27 25 25 25 23 24 22 23 19 19 18 17 16 16
28 33 29 30 29 22 15 16 22 23 22 21 20 20 14 9 11 11 9 12 9 9 12 13 17 17 19 19 20 20 20 22 24 26 30 29 27 26 26 26 24 26 23 23 22 19 18 17 17
32 30 30 29 25 25 24 20 25 24 25 22 22 9 11 12 12 13 12 12 12 12 9 9 13 16 17 20 19 21 22 23 23 23 29 31 29 28 28 26 26 24 23 23 23 22 19 18 15
26 28 32 29 28 28 27 29 22 29 23 26 26 26 19 21 19 19 19 18 18 17 16 13 15 17 20 20 21 21 22 21 23 24 25 34 31 28 28 28 27 24 24 24 22 22 19 18 16
25 27 28 28 26 32 27 27 27 31 28 26 28 25 22 23 24 22 21 20 20 20 18 16 15 13 22 23 19 18 19 20 23 23 24 26 34 29 28 26 27 27 25 23 20 19 18 15 15
21 21 26 35 28 29 24 37 36 30 28 29 29 26 23 27 25 28 27 24 23 22 19 17 17 18 22 18 16 17 19 20 23 22 24 27 28 31 26 27 26 26 25 22 22 21 18 18 16
21 25 28 31 29 29 29 36 32 31 31 29 29 29 26 27 27 29 27 26 23 18 16 17 17 18 15 15 16 19 20 22 23 23 23 24 28 27 29 27 25 25 24 24 22 22 19 18 18
21 25 28 30 28 25 31 36 32 29 28 27 28 29 26 28 28 27 28 19 20 20 19 18 19 18 17 17 16 18 19 22 22 23 23 22 24 26 28 25 25 24 25 24 23 21 19 18 14
22 26 32 30 24 24 30 29 34 31 29 27 26 25 30 29 26 30 29 19 19 18 20 19 22 25 20 19 19 20 20 22 20 21 21 21 21 24 28 25 23 22 25 24 20 19 19 16 14
22 25 28 27 29 23 22 26 33 26 28 27 27 28 27 22 21 20 23 21 22 23 23 20 25 25 21 20 19 20 18 20 20 19 20 21 22 22 25 25 22 24 23 21 20 21 18 16 11
20 22 24 27 24 26 26 28 32 30 30 25 26 28 28 28 26 24 23 23 24 23 22 24 25 24 22 23 20 15 15 14 17 18 18 20 21 22 24 26 19 21 21 21 21 21 19 12 14
22 20 22 21 21 21 26 23 26 26 27 27 28 26 24 23 23 21 22 22 28 28 27 25 24 22 22 23 23 19 17 16 18 17 18 20 21 21 24 25 17 19 21 19 22 20 16 13 11
22 22 22 23 22 24 29 21 24 24 25 26 26 27 28 25 22 23 24 24 30 29 25 25 23 22 20 21 22 21 20 18 15 17 16 19 18 21 21 21 20 19 20 17 19 16 14 13 11
23 18 24 21 20 21 28 26 24 23 26 22 19 20 17 19 22 22 23 30 26 25 26 22 23 22 21 22 22 20 20 18 18 17 18 18 19 21 22 22 20 19 18 16 16 14 11 11 13
17 18 13 16 17 19 22 24 23 23 28 27 26 24 23 14 17 18 17 17 17 23 23 21 19 20 22 22 21 22 19 16 19 21 21 21 21 21 22 22 21 18 13 14 13 11 10 11 11
16 18 14 21 15 17 22 25 21 26 28 13 18 16 17 13 10 14 15 13 13 16 18 20 21 18 18 18 19 20 20 20 21 22 23 21 22 23 23 20 17 16 14 13 10 10 11 11 11
16 17 16 20 24 18 18 28 28 29 23 18 18 12 10 10 10 10 12 12 12 16 18 18 15 17 17 19 20 21 21 21 21 20 23 23 19 20 20 17 16 13 13 10 10 11 11 9 11
14 14 4 14 23 24 17 23 17 30 28 17 16 6 3 9 7 11 7 9 11 8 8 14 16 17 19 21 21 22 20 20 22 22 18 22 23 19 18 15 14 12 11 11 10 12 12 10 10
8 12 15 9 10 14 18 10 13 25 30 21 7 5 6 4 4 5 3 5 6 13 15 16 19 21 20 21 21 24 23 24 23 20 20 18 18 17 16 14 13 11 10 10 11 7 7 11 11
2 11 10 9 8 19 16 19 21 25 26 27 12 6 9 9 3 2 3 5 13 16 19 20 22 24 24 23 24 24 25 23 22 21 19 18 16 15 13 11 11 11 11 10 9 10 10 13 15
Wind_Direction
220 248 238 232 237 230 248 235 233 216 194 225 337 243 269 260 189 157 137 137 140 150 165 174 180 180 183 185 186 185 184 186 185 188 188 190 194 194 194 193 190 185 181 183 181 182 176 173 170
206 218 230 264 240 240 233 243 196 232 206 159 202 215 249 245 84 111 130 145 144 152 164 175 184 184 187 188 190 193 190 189 192 193 193 196 198 200 201 197 194 189 186 178 173 170 164 168 166
233 220 258 226 235 244 253 201 183 216 102 202 205 214 213 186 150 122 138 147 146 158 170 179 186 189 189 190 193 197 196 194 196 197 199 201 203 204 206 202 198 194 182 177 175 173 172 174 170
204 215 255 257 249 231 260 8 189 141 209 231 222 184 218 17 33 129 142 148 153 163 173 188 192 191 193 193 196 200 201 200 203 203 205 206 206 206 207 205 201 194 186 183 181 185 182 181 181
246 259 238 238 240 263 249 241 257 269 249 222 190 215 201 179 183 135 151 159 162 167 174 192 201 195 196 197 201 203 205 205 207 208 207 208 207 205 208 206 201 194 190 190 193 195 196 198 203
221 234 251 247 245 237 256 271 243 227 241 244 235 224 202 164 182 161 161 168 170 170 176 181 199 202 201 201 204 207 209 210 209 210 211 209 210 208 210 208 205 198 194 196 200 203 204 212 220
241 243 245 254 256 254 252 257 246 241 240 230 210 225 212 160 179 173 171 173 171 172 176 180 188 201 204 207 210 211 211 213 214 214 215 214 214 213 213 212 208 205 201 202 207 208 213 219 230
236 251 263 260 259 259 253 246 262 262 255 254 282 215 215 175 172 176 177 177 177 173 180 184 187 192 198 206 215 218 218 217 218 220 220 218 218 217 217 215 213 212 208 208 210 212 218 224 231
228 248 247 250 254 264 266 269 247 264 247 250 231 259 327 148 173 184 185 184 186 177 180 192 187 193 198 205 214 219 222 224 223 223 224 221 214 215 214 214 215 216 212 210 211 214 221 225 231
229 239 241 248 255 254 259 251 263 243 226 254 216 49 262 153 183 186 188 193 195 190 187 198 197 196 199 207 210 207 214 216 217 218 216 215 214 214 214 216 211 221 216 213 214 216 218 221 229
231 240 248 251 252 265 258 252 259 262 232 225 211 189 201 189 191 194 195 204 206 205 211 199 188 199 201 208 208 209 212 215 216 217 215 217 215 217 215 214 213 213 217 214 218 223 223 230 238
235 241 248 256 272 281 256 267 271 269 251 257 216 183 181 192 190 219 221 232 229 203 206 239 194 198 206 210 211 215 217 214 214 219 215 214 213 216 215 214 211 208 212 211 213 218 221 227 237
243 246 248 253 255 260 265 241 257 256 262 247 262 198 195 213 228 237 257 273 279 274 255 229 208 204 207 212 218 217 220 219 217 220 215 210 214 215 213 217 216 207 212 212 219 220 215 225 229
254 250 253 254 253 251 247 252 254 253 250 259 247 258 236 239 232 236 226 242 248 252 255 241 222 209 210 212 216 220 224 229 225 224 221 209 212 214 212 215 217 218 212 219 214 219 223 224 235
265 266 266 257 248 247 250 254 241 250 255 245 250 239 243 249 249 251 247 238 244 250 251 247 241 226 217 219 219 222 229 231 235 231 224 212 208 217 213 214 217 219 221 220 217 224 222 225 231
278 260 250 244 242 247 242 250 245 249 253 248 247 253 238 235 235 242 243 240 244 250 255 249 240 230 216 218 221 231 238 235 237 234 226 216 212 210 216 218 216 217 222 216 221 219 221 221 231
247 250 246 255 243 241 234 247 247 251 253 252 240 243 244 244 241 241 248 252 249 248 236 239 242 240 228 229 238 245 241 239 239 234 227 216 211 211 216 216 219 215 217 216 216 220 220 220 232
254 244 248 253 258 242 232 241 245 245 249 246 257 262 241 238 243 245 241 235 238 233 233 242 245 237 241 250 248 248 245 241 237 233 226 212 206 209 206 215 219 213 215 215 214 214 217 228 237
275 272 276 277 273 246 251 244 245 246 240 250 255 243 237 250 252 246 250 231 240 242 237 240 240 247 248 241 240 240 239 234 229 227 221 210 201 201 204 212 212 214 212 216 202 206 224 217 230
277 275 270 273 271 277 275 267 266 251 246 241 245 253 258 254 255 253 256 253 252 248 243 239 243 243 238 237 236 242 240 233 223 219 211 203 199 199 202 207 206 205 209 206 201 208 214 216 210
265 263 272 278 283 272 261 255 261 255 253 249 246 250 254 253 252 250 253 259 259 253 241 233 236 239 236 228 229 227 241 241 205 204 199 199 197 198 197 203 209 194 207 199 202 201 213 202 210
267 271 276 274 264 260 253 262 254 249 250 250 246 243 246 253 258 256 255 254 251 247 247 244 236 231 227 219 224 206 214 213 208 194 198 196 194 191 191 197 203 189 199 193 196 204 198 215 219
268 276 277 268 268 257 255 256 257 250 244 240 240 245 244 242 238 244 248 254 254 249 240 234 228 218 218 205 213 205 216 211 202 198 169 177 176 180 182 188 190 187 196 183 188 191 199 197 233
271 273 267 260 261 254 249 251 251 246 250 265 260 254 250 245 244 244 245 247 247 248 243 228 216 213 211 216 209 218 200 219 181 177 170 168 170 176 183 183 184 185 192 180 183 188 199 219 240
247 253 262 252 245 252 249 257 256 258 248 256 250 250 244 250 255 240 244 244 238 240 230 226 215 218 217 207 201 202 201 199 166 157 168 166 169 177 177 175 176 177 183 174 196 194 207 215 227
255 243 251 268 264 267 239 242 254 252 259 248 294 276 264 250 254 248 241 242 245 214 213 214 207 205 194 190 188 185 182 181 171 176 167 167 169 169 168 171 171 174 180 189 186 199 216 207 213
277 255 249 262 276 291 265 270 273 240 247 241 243 228 222 239 256 263 258 250 236 220 199 198 189 192 180 177 174 171 172 172 170 160 153 160 155 155 165 167 174 178 186 190 200 224 194 205 195
249 329 261 231 253 258 258 261 268 212 237 218 219 160 284 272 266 260 250 236 205 173 160 194 181 166 166 162 160 162 161 151 139 144 153 146 145 155 161 167 176 182 193 201 201 209 204 197 191
224 218 248 181 255 272 258 293 255 210 208 222 216 78 305 306 330 317 314 100 128 180 153 150 152 149 145 152 145 130 130 138 145 141 141 140 146 152 165 172 181 191 196 198 204 231 214 209 195
243 294 271 245 273 273 267 272 301 284 168 188 86 37 350 51 78 173 209 190 200 150 148 145 143 146 145 133 133 134 140 140 139 142 143 147 151 163 170 174 180 183 191 184 217 220 222 198 188